Regional Weather Roundup
Issued by NWS

Home | Current Version | Previous Version | Text Only | Print | Product List | Glossary On
Versions: 1 2 3 4 5 6 7 8 9 10 11 12 13 14 15 16 17 18 19 20 21 22 23 24 25 26 27 28 29 30 31 32 33 34 35 36 37 38 39 40 41 42 43 44 45 46 47 48 49 50
000
ASUS45 KBOI 301510
RWRID

IDAHO REGIONAL WEATHER ROUNDUP
NATIONAL WEATHER SERVICE BOISE ID
900 AM MDT SUN AUG 30 2015

NOTE: "FAIR" INDICATES FEW OR NO CLOUDS BELOW 12000 FEET
WITH NO SIGNIFICANT WEATHER AND/OR OBSTRUCTIONS TO VISIBILITY

IDZ012-014-301600-
SOUTHWEST IDAHO


CITY           SKY/WX    TMP DP  RH WIND       PRES   REMARKS
BOISE          SUNNY     63  44  50 CALM      29.99R
CALDWELL       SUNNY     61  43  51 CALM      29.99R
MOUNTAIN HOME  SUNNY     65  44  47 NW9       29.99R
$$

IDZ016-017-301600-
SOUTHCENTRAL IDAHO


CITY           SKY/WX    TMP DP  RH WIND       PRES   REMARKS
BURLEY         MOSUNNY   64  51  62 W6        30.02R
JEROME         MOSUNNY   64  44  48 SW10      30.03R
TWIN FALLS     MOSUNNY   70  37  29 W13       30.04R
$$

IDZ019>023-301600-
SOUTHEAST IDAHO


CITY           SKY/WX    TMP DP  RH WIND       PRES   REMARKS
IDAHO FALLS    MOSUNNY   64  50  60 SW12      30.03R
POCATELLO      SUNNY     69  48  47 SW10      30.04R
REXBURG        MOSUNNY   64  49  57 SW8       30.03R
$$

IDZ006-010-011-018-031-032-301600-
CENTRAL IDAHO MOUNTAINS


CITY           SKY/WX    TMP DP  RH WIND       PRES   REMARKS
MCCALL         CLOUDY    52  49  89 CALM      30.01R
HAILEY         MOSUNNY   57  50  77 NW7       30.08R
STANLEY          N/A     51  44  77 SE7       30.09S
SALMON         SUNNY     68  45  42 E9        29.92S
CHALLIS        SUNNY     59  49  69 E3        30.01R
$$

IDZ002-004-006-007-026-301600-
NORTHERN IDAHO


CITY           SKY/WX    TMP DP  RH WIND       PRES   REMARKS
LEWISTON       PTSUNNY   61  53  75 NE3       29.85S
LOWELL           N/A     58  56  93 CALM      29.91R
COEUR D`ALENE  CLOUDY    59  48  67 S9        29.85S
MULLAN PASS    CLOUDY    47  39  74 VRB3      29.97R
$$


USA.gov is the U.S. government's official web portal to all federal, state and local government web resources and services.